Location: San Antonio
(29.4240°N, 98.4930°W)
Time: 09:54:55
(UTC-05:00)

Envisat - Pass Details

Date: 27 June 2024
Orbit: 762 x 764 km, 98.3° (Epoch: 12 July)

Event Time Altitude Azimuth Distance (km) Brightness Sun altitude
Rises 04:35:33 0° 14° (NNE) 3,226 7.2 -22.1°
Reaches altitude 10° 04:37:52 10° 16° (NNE) 2,297 6.3 -21.7°
Maximum altitude 04:42:56 77° 102° (ESE) 783 3.0 -20.9°
Enters shadow 04:45:13 33° 183° (S) 1,250 3.7 -20.6°
